When you browse on this site, cookies collect data to enhance your experience and personalize the content and advertising you see.
Visit our Privacy Policy to learn more. By continuing to use the site, you agree to this use of cookies and data.
  • en Belgique
  • Liste des pays
  • À 7 jours
  • Température de l'eau
  • Carte satellitaire
  • Carte météo
  • Widgets météo
  • user-avatar
    Se connecter

    Météo par heure à Perth

    Ce jour, 14 Décembre, Vendredi

    Heure Température Précipitation Vent Pression Humidité
    00:00 +27°C° 0 mm 4 m/s 757 mmHg 31%
    01:00 +27°C° 0 mm 4 m/s 756 mmHg 28%
    02:00 +27°C° 0 mm 4 m/s 756 mmHg 25%
    03:00 +27°C° 0 mm 4 m/s 756 mmHg 24%
    04:00 +27°C° 0 mm 4 m/s 756 mmHg 23%
    05:00 +26°C° 0 mm 3 m/s 756 mmHg 22%
    06:00 +28°C° 0 mm 4 m/s 756 mmHg 21%
    07:00 +30°C° 0 mm 4 m/s 756 mmHg 20%
    08:00 +32°C° 0 mm 4 m/s 756 mmHg 19%
    09:00 +35°C° 0 mm 4 m/s 756 mmHg 18%
    10:00 +37°C° 0 mm 3 m/s 755 mmHg 17%
    11:00 +39°C° 0 mm 3 m/s 755 mmHg 16%
    12:00 +40°C° 0 mm 3 m/s 754 mmHg 15%
    13:00 +41°C° 0 mm 4 m/s 754 mmHg 15%
    14:00 +42°C° 0 mm 4 m/s 753 mmHg 15%
    15:00 +41°C° 0 mm 5 m/s 753 mmHg 17%
    16:00 +40°C° 0 mm 5 m/s 752 mmHg 19%
    17:00 +39°C° 0 mm 6 m/s 752 mmHg 20%
    18:00 +35°C° 0 mm 5 m/s 752 mmHg 24%
    19:00 +33°C° 0 mm 5 m/s 752 mmHg 27%
    20:00 +30°C° 0 mm 5 m/s 752 mmHg 31%
    21:00 +29°C° 0 mm 5 m/s 751 mmHg 33%
    22:00 +29°C° 0 mm 4 m/s 751 mmHg 34%
    23:00 +28°C° 0 mm 4 m/s 751 mmHg 36%

    Demain, 15 Décembre, Samedi

    Heure Température Précipitation Vent Pression Humidité
    00:00 +27°C° 0 mm 4 m/s 751 mmHg 40%
    01:00 +27°C° 0 mm 4 m/s 751 mmHg 43%
    02:00 +26°C° 0 mm 4 m/s 751 mmHg 47%
    03:00 +26°C° 0 mm 4 m/s 751 mmHg 48%
    04:00 +25°C° 0 mm 4 m/s 751 mmHg 49%
    05:00 +25°C° 0 mm 3 m/s 750 mmHg 50%
    06:00 +26°C° 0 mm 4 m/s 751 mmHg 47%
    07:00 +27°C° 0 mm 4 m/s 751 mmHg 45%
    08:00 +28°C° 0 mm 5 m/s 751 mmHg 42%
    09:00 +30°C° 0 mm 5 m/s 750 mmHg 38%
    10:00 +33°C° 0 mm 6 m/s 750 mmHg 34%
    11:00 +35°C° 0 mm 7 m/s 750 mmHg 29%
    12:00 +35°C° 0 mm 7 m/s 749 mmHg 30%
    13:00 +35°C° 0 mm 8 m/s 749 mmHg 30%
    14:00 +37°C° 0 mm 8 m/s 748 mmHg 31%
    15:00 +34°C° 0 mm 8 m/s 748 mmHg 36%
    16:00 +33°C° 0 mm 8 m/s 748 mmHg 40%
    17:00 +31°C° 0 mm 9 m/s 748 mmHg 45%
    18:00 +29°C° 0 mm 8 m/s 749 mmHg 49%
    19:00 +28°C° 0 mm 8 m/s 749 mmHg 53%
    20:00 +26°C° 0 mm 7 m/s 750 mmHg 57%
    21:00 +26°C° 0 mm 7 m/s 750 mmHg 57%
    22:00 +24°C° 0 mm 7 m/s 750 mmHg 57%
    23:00 +23°C° 0 mm 7 m/s 751 mmHg 56%

    Après-demain, 16 Décembre, Dimanche

    Heure Température Précipitation Vent Pression Humidité
    00:00 +23°C° 0 mm 6 m/s 750 mmHg 56%
    01:00 +22°C° 0 mm 6 m/s 750 mmHg 56%
    02:00 +21°C° 0 mm 6 m/s 750 mmHg 56%
    03:00 +21°C° 0 mm 5 m/s 750 mmHg 57%
    04:00 +20°C° 0 mm 5 m/s 750 mmHg 57%
    05:00 +20°C° 0 mm 5 m/s 750 mmHg 58%
    06:00 +21°C° 0 mm 5 m/s 750 mmHg 54%
    07:00 +22°C° 0 mm 5 m/s 751 mmHg 50%
    08:00 +23°C° 0 mm 5 m/s 751 mmHg 47%
    09:00 +26°C° 0 mm 5 m/s 751 mmHg 44%
    10:00 +27°C° 0 mm 5 m/s 751 mmHg 41%
    11:00 +29°C° 0 mm 5 m/s 751 mmHg 38%
    12:00 +29°C° 0.1 mm 6 m/s 750 mmHg 39%
    13:00 +29°C° 0.1 mm 6 m/s 750 mmHg 39%
    14:00 +28°C° 0.1 mm 7 m/s 750 mmHg 40%
    15:00 +28°C° 0.1 mm 7 m/s 750 mmHg 40%
    16:00 +28°C° 0.1 mm 7 m/s 750 mmHg 40%
    17:00 +28°C° 0.1 mm 7 m/s 750 mmHg 40%
    18:00 +27°C° 0.2 mm 7 m/s 751 mmHg 44%
    19:00 +24°C° 0.2 mm 7 m/s 752 mmHg 48%
    20:00 +23°C° 0.2 mm 6 m/s 752 mmHg 52%
    21:00 +22°C° 0 mm 6 m/s 753 mmHg 54%
    22:00 +21°C° 0 mm 7 m/s 754 mmHg 56%
    23:00 +20°C° 0 mm 7 m/s 755 mmHg 59%

    17 Décembre, Lundi

    Heure Température Précipitation Vent Pression Humidité
    00:00 +20°C° 0 mm 7 m/s 755 mmHg 60%
    01:00 +20°C° 0 mm 6 m/s 755 mmHg 61%
    02:00 +19°C° 0 mm 6 m/s 754 mmHg 63%
    03:00 +19°C° 0 mm 6 m/s 755 mmHg 65%
    04:00 +19°C° 0 mm 6 m/s 755 mmHg 67%
    05:00 +17°C° 0 mm 6 m/s 755 mmHg 69%
    06:00 +19°C° 0 mm 6 m/s 756 mmHg 66%
    07:00 +20°C° 0 mm 6 m/s 756 mmHg 62%
    08:00 +21°C° 0 mm 6 m/s 757 mmHg 59%
    09:00 +21°C° 0 mm 6 m/s 757 mmHg 56%
    10:00 +22°C° 0 mm 6 m/s 757 mmHg 54%
    11:00 +23°C° 0 mm 5 m/s 758 mmHg 52%
    12:00 +23°C° 0 mm 5 m/s 757 mmHg 50%
    13:00 +25°C° 0 mm 5 m/s 757 mmHg 48%
    14:00 +24°C° 0 mm 6 m/s 757 mmHg 47%
    15:00 +24°C° 0 mm 6 m/s 757 mmHg 47%
    16:00 +24°C° 0 mm 6 m/s 757 mmHg 48%
    17:00 +24°C° 0 mm 6 m/s 756 mmHg 48%
    18:00 +23°C° 0 mm 6 m/s 757 mmHg 51%
    19:00 +22°C° 0 mm 5 m/s 758 mmHg 54%
    20:00 +22°C° 0 mm 5 m/s 758 mmHg 56%
    21:00 +21°C° 0 mm 5 m/s 758 mmHg 59%
    22:00 +20°C° 0 mm 5 m/s 759 mmHg 62%
    23:00 +20°C° 0 mm 5 m/s 759 mmHg 65%

    18 Décembre, Mardi

    Heure Température Précipitation Vent Pression Humidité
    00:00 +19°C° 0 mm 4 m/s 759 mmHg 69%
    01:00 +18°C° 0 mm 4 m/s 758 mmHg 73%
    02:00 +17°C° 0 mm 4 m/s 758 mmHg 77%
    03:00 +17°C° 0 mm 3 m/s 758 mmHg 80%
    04:00 +16°C° 0 mm 3 m/s 759 mmHg 82%
    05:00 +16°C° 0 mm 3 m/s 759 mmHg 85%
    06:00 +17°C° 0 mm 3 m/s 760 mmHg 76%
    07:00 +19°C° 0 mm 3 m/s 760 mmHg 68%
    08:00 +21°C° 0 mm 3 m/s 761 mmHg 59%
    09:00 +23°C° 0 mm 4 m/s 760 mmHg 52%
    10:00 +25°C° 0 mm 4 m/s 760 mmHg 46%
    11:00 +27°C° 0 mm 4 m/s 760 mmHg 40%
    12:00 +28°C° 0 mm 4 m/s 760 mmHg 38%
    13:00 +29°C° 0 mm 5 m/s 759 mmHg 37%
    14:00 +29°C° 0 mm 6 m/s 759 mmHg 35%
    15:00 +29°C° 0 mm 6 m/s 759 mmHg 37%
    16:00 +28°C° 0 mm 6 m/s 759 mmHg 39%
    17:00 +28°C° 0 mm 7 m/s 759 mmHg 42%
    18:00 +26°C° 0 mm 6 m/s 759 mmHg 46%
    19:00 +24°C° 0 mm 6 m/s 760 mmHg 51%
    20:00 +22°C° 0 mm 6 m/s 760 mmHg 56%
    21:00 +22°C° 0 mm 5 m/s 761 mmHg 57%
    22:00 +21°C° 0 mm 5 m/s 761 mmHg 58%
    23:00 +20°C° 0 mm 4 m/s 761 mmHg 58%

    19 Décembre, Mercredi

    Heure Température Précipitation Vent Pression Humidité
    00:00 +20°C° 0 mm 4 m/s 761 mmHg 60%
    01:00 +20°C° 0 mm 4 m/s 761 mmHg 61%
    02:00 +19°C° 0 mm 4 m/s 761 mmHg 62%
    03:00 +19°C° 0 mm 4 m/s 761 mmHg 64%
    04:00 +18°C° 0 mm 4 m/s 762 mmHg 67%
    05:00 +18°C° 0 mm 4 m/s 762 mmHg 69%
    06:00 +19°C° 0 mm 4 m/s 762 mmHg 63%
    07:00 +20°C° 0 mm 4 m/s 763 mmHg 57%
    08:00 +22°C° 0 mm 4 m/s 763 mmHg 51%
    09:00 +25°C° 0 mm 4 m/s 763 mmHg 44%
    10:00 +27°C° 0 mm 4 m/s 762 mmHg 37%
    11:00 +29°C° 0 mm 3 m/s 762 mmHg 30%
    12:00 +30°C° 0 mm 4 m/s 762 mmHg 28%
    13:00 +32°C° 0 mm 4 m/s 761 mmHg 26%
    14:00 +33°C° 0 mm 5 m/s 761 mmHg 25%
    15:00 +32°C° 0 mm 5 m/s 761 mmHg 26%
    16:00 +32°C° 0 mm 6 m/s 761 mmHg 27%
    17:00 +30°C° 0 mm 6 m/s 760 mmHg 29%
    18:00 +29°C° 0 mm 5 m/s 761 mmHg 33%
    19:00 +27°C° 0 mm 5 m/s 761 mmHg 38%
    20:00 +25°C° 0 mm 4 m/s 762 mmHg 43%
    21:00 +25°C° 0 mm 5 m/s 762 mmHg 43%
    22:00 +23°C° 0 mm 5 m/s 762 mmHg 43%
    23:00 +23°C° 0 mm 5 m/s 762 mmHg 43%
    Voir plus